Change the Weather History Date:

Wednesday, May 15, 2013

  Actual Average (KBNO) Record (KBNO)
Temperature  
Mean Temperature 58 °F 51 °F  
Max Temperature 73 °F 66 °F 89 °F (2006)
Min Temperature 42 °F 37 °F 23 °F (1974)
Degree Days  
Heating Degree Days 8 14  
Month to date heating degree days 238  
Since 1 July heating degree days 7278  
Cooling Degree Days 0 0  
Month to date cooling degree days 0  
Year to date cooling degree days 0  
Growing Degree Days 8 (Base 50)    
Moisture  
Dew Point 34 °F    
Average Humidity 47    
Maximum Humidity 74    
Minimum Humidity 22    
Precipitation  
Precipitation 0.00 in 0.04 in 0.80 in (2011)
Month to date precipitation 0.55  
Year to date precipitation 4.78  
Sea Level Pressure  
Sea Level Pressure 30.01 in    
Wind  
Wind Speed 5 mph (WNW)    
Max Wind Speed 20 mph    
Max Gust Speed 31 mph    
Visibility 10 miles    
Events      
T = Trace of Precipitation, MM = Missing Value Source: NWS Daily Summary

Daily Weather History Graph

Daily Weather History Graph

Search for Another Location

Airport or City:

Trip Planner

Search our weather history database for the weather conditions in past years. The results will help you decide how hot, cold, wet, or windy it might be!

Date:

Astronomy

May. 15, 2013 Rise Set
Actual Time 5:28 AM PDT 8:16 PM PDT
Civil Twilight 4:54 AM PDT 8:50 PM PDT
Nautical Twilight 4:11 AM PDT 9:33 PM PDT
Astronomical Twilight 3:22 AM PDT 10:23 PM PDT
Moon 10:10 AM PDT (5/15) 12:04 AM PDT (5/15)
Length of Visible Light 15h 56m
Length of Day
14h 48m
Waxing Crescent, 28% of the Moon is Illuminated
May 15
Waxing Crescent
May 17
First Quarter
May 24
Full
May 31
Last Quarter
Jun 8
New

Hourly Weather History & Observations

Time (PDT) Temp. Windchill Dew Point Humidity Pressure Visibility Wind Dir Wind Speed Gust Speed Precip Events Conditions
12:15 AM 49.8 °F - 32.9 °F 52% 30.09 in 10.0 mi Calm Calm - N/A   Clear
12:35 AM 52.2 °F - 32.5 °F 47% 30.09 in 10.0 mi Calm Calm - N/A   Clear
12:55 AM 50.2 °F - 32.7 °F 51% 30.08 in 10.0 mi WSW 5.8 mph - N/A   Clear
1:15 AM 48.2 °F - 32.4 °F 54% 30.08 in 10.0 mi West 4.6 mph - N/A   Clear
1:35 AM 46.6 °F - 32.0 °F 57% 30.07 in 10.0 mi WSW 5.8 mph - N/A   Clear
1:55 AM 46.4 °F 43.5 °F 31.8 °F 57% 30.07 in 10.0 mi WSW 5.8 mph - N/A   Clear
2:15 AM 46.6 °F - 31.1 °F 55% 30.07 in 10.0 mi WSW 5.8 mph - N/A   Clear
2:35 AM 45.5 °F 41.8 °F 30.7 °F 56% 30.07 in 10.0 mi West 6.9 mph - N/A   Clear
2:55 AM 46.8 °F - 30.2 °F 53% 30.07 in 10.0 mi WSW 3.5 mph - N/A   Clear
3:15 AM 46.6 °F - 30.0 °F 53% 30.07 in 10.0 mi Calm Calm - N/A   Clear
3:35 AM 46.0 °F 43.9 °F 30.0 °F 54% 30.07 in 10.0 mi WSW 4.6 mph - N/A   Clear
3:55 AM 45.5 °F 44.2 °F 30.0 °F 55% 30.06 in 10.0 mi SSW 3.5 mph - N/A   Clear
4:15 AM 46.6 °F - 29.8 °F 52% 30.06 in 10.0 mi Calm Calm - N/A   Clear
4:35 AM 42.8 °F 40.1 °F 32.7 °F 68% 30.07 in 10.0 mi ESE 4.6 mph - N/A   Clear
4:55 AM 43.2 °F 41.5 °F 32.0 °F 65% 30.07 in 10.0 mi East 3.5 mph - N/A   Clear
5:15 AM 44.2 °F - 32.0 °F 62% 30.07 in 10.0 mi Calm Calm - N/A   Clear
5:35 AM 44.2 °F - 32.0 °F 62% 30.07 in 10.0 mi Calm Calm - N/A   Clear
6:15 AM 43.3 °F 40.7 °F 32.2 °F 65% 30.08 in 10.0 mi East 4.6 mph - N/A   Clear
6:35 AM 43.9 °F 40.5 °F 32.9 °F 65% 30.08 in 10.0 mi ESE 5.8 mph - N/A   Clear
6:55 AM 45.1 °F 42.8 °F 33.8 °F 65% 30.08 in 10.0 mi ESE 4.6 mph - N/A   Clear
7:15 AM 45.7 °F 44.4 °F 33.1 °F 61% 30.08 in 10.0 mi ESE 3.5 mph - N/A   Clear
7:35 AM 46.9 °F - 33.6 °F 60% 30.08 in 10.0 mi East 4.6 mph - N/A   Clear
7:55 AM 48.2 °F - 34.2 °F 58% 30.07 in 10.0 mi Calm Calm - N/A   Clear
8:15 AM 48.9 °F - 35.1 °F 59% 30.07 in 10.0 mi ESE 3.5 mph - N/A   Clear
8:35 AM 50.4 °F - 34.5 °F 55% 30.06 in 10.0 mi East 3.5 mph - N/A   Clear
8:55 AM 51.1 °F - 34.0 °F 52% 30.06 in 10.0 mi Calm Calm - N/A   Clear
9:15 AM 52.7 °F - 33.6 °F 48% 30.06 in 10.0 mi Calm Calm - N/A   Clear
9:35 AM 54.0 °F - 34.5 °F 48% 30.05 in 10.0 mi WNW 3.5 mph - N/A   Clear
9:55 AM 55.0 °F - 33.3 °F 44% 30.04 in 10.0 mi Calm Calm - N/A   Clear
10:15 AM 57.0 °F - 33.6 °F 41% 30.03 in 10.0 mi NW 3.5 mph - N/A   Clear
10:35 AM 56.8 °F - 32.4 °F 40% 30.03 in 10.0 mi Calm Calm - N/A   Clear
10:55 AM 59.2 °F - 32.2 °F 36% 30.02 in 10.0 mi Calm Calm - N/A   Clear
11:15 AM 58.1 °F - 31.1 °F 36% 30.01 in 10.0 mi Calm Calm - N/A   Scattered Clouds
11:35 AM 59.5 °F - 32.5 °F 36% 30.01 in 10.0 mi WNW 5.8 mph - N/A   Scattered Clouds
11:55 AM 61.7 °F - 31.6 °F 32% 30.00 in 10.0 mi Calm Calm - N/A   Scattered Clouds
12:15 PM 63.0 °F - 32.0 °F 31% 29.99 in 10.0 mi ESE 4.6 mph - N/A   Scattered Clouds
12:35 PM 64.0 °F - 30.7 °F 29% 29.98 in 10.0 mi Calm Calm - N/A   Clear
12:55 PM 64.4 °F - 31.3 °F 29% 29.97 in 10.0 mi West 4.6 mph - N/A   Clear
1:15 PM 66.2 °F - 31.5 °F 27% 29.97 in 10.0 mi NW 5.8 mph - N/A   Clear
1:35 PM 66.9 °F - 31.3 °F 27% 29.96 in 10.0 mi WNW 5.8 mph - N/A   Clear
1:55 PM 68.7 °F - 32.2 °F 26% 29.95 in 10.0 mi NW 10.4 mph - N/A   Clear
2:15 PM 68.4 °F - 32.2 °F 26% 29.94 in 10.0 mi WNW 10.4 mph - N/A   Scattered Clouds
2:35 PM 70.9 °F - 32.7 °F 24% 29.94 in 10.0 mi West 10.4 mph - N/A   Mostly Cloudy
2:55 PM 70.3 °F - 32.2 °F 24% 29.93 in 10.0 mi NNW 3.5 mph - N/A   Mostly Cloudy
3:15 PM 72.1 °F - 32.4 °F 23% 29.92 in 10.0 mi WSW 10.4 mph 17.3 mph N/A   Scattered Clouds
3:35 PM 70.5 °F - 32.2 °F 24% 29.92 in 10.0 mi West 9.2 mph 17.3 mph N/A   Mostly Cloudy
3:55 PM 72.5 °F - 31.8 °F 22% 29.92 in 10.0 mi West 9.2 mph 19.6 mph N/A   Mostly Cloudy
4:15 PM 73.4 °F - 32.9 °F 23% 29.91 in 10.0 mi WNW 19.6 mph 25.3 mph N/A   Mostly Cloudy
4:35 PM 69.6 °F - 33.3 °F 26% 29.91 in 10.0 mi NNW 12.7 mph 18.4 mph N/A   Mostly Cloudy
4:55 PM 66.9 °F - 32.2 °F 27% 29.92 in 10.0 mi NNW 17.3 mph - N/A   Overcast
5:15 PM 65.7 °F - 32.0 °F 29% 29.92 in 10.0 mi NW 11.5 mph 23.0 mph N/A   Scattered Clouds
5:35 PM 65.3 °F - 32.4 °F 29% 29.92 in 10.0 mi NNW 13.8 mph 25.3 mph N/A   Clear
5:55 PM 64.4 °F - 33.3 °F 31% 29.93 in 10.0 mi NNW 17.3 mph 26.5 mph N/A   Clear
6:15 PM 62.8 °F - 33.6 °F 34% 29.94 in 10.0 mi NNW 16.1 mph 31.1 mph N/A   Scattered Clouds
6:35 PM 60.4 °F - 33.3 °F 36% 29.95 in 10.0 mi NNW 19.6 mph 26.5 mph N/A   Mostly Cloudy
6:55 PM 59.2 °F - 33.1 °F 37% 29.96 in 10.0 mi NW 12.7 mph 20.7 mph N/A   Overcast
7:15 PM 57.9 °F - 34.5 °F 41% 29.96 in 10.0 mi NW 13.8 mph 19.6 mph N/A   Overcast
7:35 PM 56.8 °F - 35.2 °F 44% 29.97 in 10.0 mi NNW 10.4 mph 16.1 mph N/A   Overcast
7:55 PM 56.5 °F - 35.1 °F 45% 29.97 in 10.0 mi NNW 11.5 mph - N/A   Overcast
8:15 PM 55.6 °F - 35.6 °F 47% 29.99 in 10.0 mi NW 13.8 mph - N/A   Overcast
8:35 PM 53.8 °F - 37.9 °F 55% 29.99 in 10.0 mi NW 10.4 mph 18.4 mph N/A   Light Drizzle
8:55 PM 54.0 °F - 37.6 °F 54% 30.00 in 10.0 mi NW 9.2 mph - N/A   Overcast
9:15 PM 53.6 °F - 38.5 °F 57% 30.00 in 10.0 mi WNW 11.5 mph - N/A   Overcast
9:35 PM 52.3 °F - 41.0 °F 65% 30.00 in 10.0 mi West 9.2 mph - N/A   Overcast
9:55 PM 51.8 °F - 41.2 °F 67% 30.00 in 10.0 mi West 8.1 mph - N/A   Overcast
10:15 PM 51.1 °F - 41.0 °F 68% 30.00 in 10.0 mi WNW 5.8 mph - N/A   Overcast
10:35 PM 50.9 °F - 41.2 °F 69% 30.00 in 10.0 mi West 5.8 mph - N/A   Overcast
10:55 PM 50.9 °F - 41.9 °F 71% 30.00 in 10.0 mi West 8.1 mph - N/A   Overcast
11:15 PM 50.9 °F - 42.1 °F 72% 30.00 in 10.0 mi West 4.6 mph - N/A   Overcast
11:35 PM 50.7 °F - 42.3 °F 73% 30.01 in 10.0 mi West 4.6 mph - N/A   Overcast
11:55 PM 50.5 °F - 42.4 °F 74% 30.01 in 10.0 mi Calm Calm - N/A   Overcast